DW8305 Weather Reports


time (UTC)temp
C
wind
direction
speed
KPH
gust
KPH
rain 1hr
cm
rain 24hr
cm
rain mn
cm
humidity
%
barometer
mb
20260906231356 13 135 4.8 8.0 0.00 0.00 0.00 82 1023.4
20260906230316 13 113 1.6 3.2 0.00 0.00 0.00 82 1023.6
20260906225316 13 135 3.2 6.4 0.00 0.00 0.00 81 1023.7
20260906224336 14 113 4.8 6.4 0.00 0.00 0.00 81 1023.8
20260906223316 14 135 4.8 6.4 0.00 0.00 0.00 80 1023.7
20260906222316 14 113 1.6 4.8 0.00 0.00 0.00 80 1023.9
20260906221316 14 135 3.2 6.4 0.00 0.00 0.00 79 1024.1
20260906220336 14 135 6.4 8.0 0.00 0.00 0.00 78 1024.0
20260906215337 15 135 3.2 6.4 0.00 0.00 0.00 78 1024.1
20260906214317 15 135 1.6 3.2 0.00 0.00 0.00 77 1024.1
20260906213317 15 135 4.8 6.4 0.00 0.00 0.00 77 1024.1
20260906212317 15 113 4.8 6.4 0.00 0.00 0.00 76 1024.1
20260906211317 15 113 1.6 3.2 0.00 0.00 0.00 77 1024.3
20260906210317 15 135 3.2 6.4 0.00 0.00 0.00 76 1024.3
20260906205337 15 135 4.8 6.4 0.00 0.00 0.00 76 1024.4
20260906204317 15 135 1.6 3.2 0.00 0.00 0.00 76 1024.6
20260906203317 15 135 3.2 3.2 0.00 0.00 0.00 75 1024.6
20260906202357 15 0.0 0.0 0.00 0.00 0.00 75 1024.7
20260906201317 15 135 1.6 1.6 0.00 0.00 0.00 75 1024.8
20260906200317 15 0.0 1.6 0.00 0.00 0.00 75 1024.9
20260906195317 15 0.0 0.0 0.00 0.00 0.00 75 1025.0
20260906194317 15 135 3.2 4.8 0.00 0.00 0.00 76 1025.0
20260906193337 15 135 3.2 4.8 0.00 0.00 0.00 75 1025.1
20260906192317 15 135 1.6 3.2 0.00 0.00 0.00 74 1025.3
20260906191317 16 0.0 1.6 0.00 0.00 0.00 74 1025.4
20260906190317 16 0.0 0.0 0.00 0.00 0.00 74 1025.5
20260906185317 16 0.0 1.6 0.00 0.00 0.00 73 1025.5
20260906184317 16 0.0 1.6 0.00 0.00 0.00 72 1025.6
20260906183317 17 0.0 0.0 0.00 0.00 0.00 70 1025.6
20260906182357 17 0.0 1.6 0.00 0.00 0.00 68 1025.5
20260906181317 17 0.0 0.0 0.00 0.00 0.00 67 1025.4
20260906180317 18 0.0 1.6 0.00 0.00 0.00 65 1025.4
20260906175316 18 135 1.6 1.6 0.00 0.00 0.00 63 1025.5
20260906174317 19 135 1.6 3.2 0.00 0.00 0.00 61 1025.4
20260906173316 20 0.0 1.6 0.00 0.00 0.00 59 1025.3
20260906172317 20 113 1.6 4.8 0.00 0.00 0.00 58 1025.3
20260906171317 20 0.0 1.6 0.00 0.00 0.00 57 1025.5
20260906170317 20 135 3.2 4.8 0.00 0.00 0.00 56 1025.6
20260906165317 21 135 3.2 6.4 0.00 0.00 0.00 56 1025.6
20260906164337 21 135 3.2 6.4 0.00 0.00 0.00 55 1025.7
20260906163316 21 113 1.6 3.2 0.00 0.00 0.00 54 1025.6
20260906162337 21 0.0 1.6 0.00 0.00 0.00 54 1025.7
20260906161317 21 0.0 1.6 0.00 0.00 0.00 53 1025.8
20260906160316 21 158 3.2 3.2 0.00 0.00 0.00 51 1026.0
20260906155317 21 0.0 3.2 0.00 0.00 0.00 49 1026.1
20260906154357 22 225 4.8 6.4 0.00 0.00 0.00 48 1026.2
20260906153317 22 293 1.6 1.6 0.00 0.00 0.00 48 1026.2
20260906152317 22 0.0 1.6 0.00 0.00 0.00 50 1026.2
20260906151317 22 225 4.8 8.0 0.00 0.00 0.00 49 1026.3
20260906150317 22 113 1.6 1.6 0.00 0.00 0.00 51 1026.2
20260906145317 21 203 4.8 9.7 0.00 0.00 0.00 51 1026.2
20260906144317 22 225 1.6 3.2 0.00 0.00 0.00 50 1026.4
20260906143317 22 0.0 4.8 0.00 0.00 0.00 50 1026.5
20260906142316 21 113 1.6 4.8 0.00 0.00 0.00 50 1026.6
20260906141317 21 180 1.6 1.6 0.00 0.00 0.00 51 1026.5
20260906140316 21 225 3.2 4.8 0.00 0.00 0.00 52 1026.7
20260906135317 20 248 4.8 8.0 0.00 0.00 0.00 55 1026.8
20260906134337 21 270 6.4 9.7 0.00 0.00 0.00 54 1026.8
20260906133317 20 180 4.8 8.0 0.00 0.00 0.00 56 1026.9
20260906132317 20 293 3.2 4.8 0.00 0.00 0.00 55 1027.0
20260906131317 20 248 1.6 3.2 0.00 0.00 0.00 55 1027.0
20260906130317 20 293 3.2 6.4 0.00 0.00 0.00 54 1027.2
20260906125316 20 135 1.6 4.8 0.00 0.00 0.00 55 1027.2
20260906124317 20 225 6.4 9.7 0.00 0.00 0.00 56 1027.3
20260906123317 20 225 6.4 11.3 0.00 0.00 0.00 54 1027.3
20260906122317 20 293 3.2 6.4 0.00 0.00 0.00 57 1027.4
20260906121317 20 293 4.8 8.0 0.00 0.00 0.00 58 1027.5
20260906120316 20 270 6.4 11.3 0.00 0.00 0.00 57 1027.6
20260906115317 20 225 8.0 9.7 0.00 0.00 0.00 57 1027.9
20260906114317 19 248 1.6 3.2 0.00 0.00 0.00 56 1028.0
20260906113316 19 293 4.8 6.4 0.00 0.00 0.00 56 1028.0
20260906112316 19 158 3.2 8.0 0.00 0.00 0.00 57 1027.9
20260906111317 19 248 4.8 6.4 0.00 0.00 0.00 59 1028.0
20260906110316 19 270 11.3 14.5 0.00 0.00 0.00 59 1028.2
20260906105317 18 248 4.8 6.4 0.00 0.00 0.00 60 1028.1
20260906104316 18 270 6.4 12.9 0.00 0.00 0.00 60 1028.2
20260906103337 18 270 8.0 9.7 0.00 0.00 0.00 59 1028.3
20260906102317 19 248 3.2 6.4 0.00 0.00 0.00 60 1028.3
20260906101316 19 293 9.7 11.3 0.00 0.00 0.00 62 1028.3
20260906100337 18 248 1.6 4.8 0.00 0.00 0.00 64 1028.3
20260906095316 18 0 1.6 6.4 0.00 0.00 0.00 63 1028.3
20260906094316 18 248 1.6 6.4 0.00 0.00 0.00 63 1028.4
20260906093337 17 248 4.8 8.0 0.00 0.00 0.00 64 1028.3
20260906092317 17 270 6.4 8.0 0.00 0.00 0.00 63 1028.3
20260906091357 17 270 6.4 11.3 0.00 0.00 0.00 64 1028.3
20260906090316 17 315 4.8 8.0 0.00 0.00 0.00 65 1028.4
20260906085317 17 270 1.6 3.2 0.00 0.00 0.00 67 1028.4
20260906084337 17 270 6.4 8.0 0.00 0.00 0.00 68 1028.3
20260906083317 16 293 1.6 4.8 0.00 0.00 0.00 70 1028.3
20260906082316 16 270 6.4 8.0 0.00 0.00 0.00 71 1028.4
20260906081317 16 248 4.8 6.4 0.00 0.00 0.00 72 1028.2
20260906080337 16 270 3.2 4.8 0.00 0.00 0.00 73 1028.2
20260906075357 15 225 1.6 1.6 0.00 0.00 0.00 75 1028.1
20260906074337 15 293 4.8 6.4 0.00 0.00 0.00 75 1028.0
20260906073316 15 293 1.6 3.2 0.00 0.00 0.00 75 1028.0
20260906072317 15 270 4.8 8.0 0.00 0.00 0.00 76 1028.0
20260906071317 14 0.0 1.6 0.00 0.00 0.00 77 1027.9
20260906070316 14 270 1.6 3.2 0.00 0.00 0.00 79 1027.9
20260906065316 13 0.0 3.2 0.00 0.00 0.00 81 1027.8
20260906064357 13 270 1.6 3.2 0.00 0.00 0.00 83 1027.8
20260906063316 13 203 3.2 8.0 0.00 0.00 0.00 83 1027.8
20260906062316 12 270 3.2 4.8 0.00 0.00 0.00 84 1027.8
20260906061317 12 270 1.6 4.8 0.00 0.00 0.00 86 1027.5
20260906060337 12 293 1.6 3.2 0.00 0.00 0.00 87 1027.5
20260906055316 12 248 3.2 6.4 0.00 0.00 0.00 88 1027.4
20260906054317 11 293 4.8 8.0 0.00 0.00 0.00 89 1027.3
20260906053336 11 270 3.2 6.4 0.00 0.00 0.00 90 1027.3
20260906052317 11 270 4.8 9.7 0.00 0.00 0.00 91 1027.2
20260906051316 11 270 3.2 4.8 0.00 0.00 0.00 91 1027.1
20260906050317 10 0.0 0.0 0.00 0.00 0.00 91 1027.0
20260906045317 11 270 1.6 3.2 0.00 0.00 0.00 91 1027.0
20260906044316 11 270 3.2 4.8 0.00 0.00 0.00 91 1026.9
20260906043317 11 270 3.2 6.4 0.00 0.00 0.00 90 1026.8
20260906042317 11 270 1.6 3.2 0.00 0.00 0.00 90 1026.6
20260906041336 11 270 4.8 6.4 0.00 0.00 0.00 90 1026.7
20260906040317 11 270 4.8 8.0 0.00 0.00 0.00 90 1026.6
20260906035316 11 270 4.8 6.4 0.00 0.00 0.00 90 1026.5
20260906034316 11 0.0 1.6 0.00 0.00 0.00 89 1026.6
20260906033316 11 0.0 1.6 0.00 0.00 0.00 88 1026.5
20260906032336 11 270 3.2 6.4 0.00 0.00 0.00 88 1026.5
20260906031316 11 270 3.2 3.2 0.00 0.00 0.00 88 1026.7
20260906030317 11 270 6.4 9.7 0.00 0.00 0.00 88 1026.7
20260906025317 11 270 4.8 8.0 0.00 0.00 0.00 88 1026.6
20260906024317 11 293 1.6 3.2 0.00 0.00 0.00 88 1026.6
20260906023317 11 270 4.8 6.4 0.00 0.00 0.00 88 1026.5
20260906022317 12 248 3.2 6.4 0.00 0.00 0.00 87 1026.4
20260906021316 12 270 3.2 11.3 0.00 0.00 0.00 87 1026.4
20260906020337 12 248 3.2 6.4 0.00 0.00 0.00 86 1026.4
20260906015317 12 293 6.4 9.7 0.00 0.00 0.00 86 1026.2
20260906014316 12 270 8.0 11.3 0.00 0.00 0.00 86 1026.2
20260906013317 12 270 9.7 12.9 0.00 0.00 0.00 86 1026.1
20260906012316 12 270 4.8 9.7 0.00 0.00 0.00 85 1025.9
20260906011316 12 270 4.8 8.0 0.00 0.00 0.00 84 1025.9
20260906010317 13 270 4.8 6.4 0.00 0.00 0.00 84 1025.9
20260906005316 13 270 9.7 11.3 0.00 0.00 0.00 83 1025.8
20260906004317 13 270 3.2 4.8 0.00 0.00 0.00 83 1025.7
20260906003317 13 270 4.8 9.7 0.00 0.00 0.00 83 1025.6
20260906002316 13 270 6.4 12.9 0.00 0.00 0.00 82 1025.6
20260906001336 13 270 8.0 16.1 0.00 0.00 0.00 82 1025.5
20260906000318 13 270 6.4 11.3 0.00 0.00 0.00 82 1025.4
20260905235337 13 293 11.3 16.1 0.00 0.00 0.00 82 1025.4
20260905234317 13 270 6.4 8.0 0.00 0.00 0.00 81 1025.4
20260905233316 13 270 8.0 11.3 0.00 0.00 0.00 81 1025.3
20260905232317 13 270 8.0 12.9 0.00 0.00 0.00 81 1025.2